Weather History for Custer, SD

Change the Weather History Date:

Friday, October 24, 2014

  Actual Average Record
Temperature  
Mean Temperature 54 °F 40 °F  
Max Temperature 71 °F 52 °F 76 °F (1948)
Min Temperature 37 °F 29 °F 11 °F (1945)
Degree Days  
Heating Degree Days 11 25  
Month to date heating degree days 386 512  
Since 1 July heating degree days 802 998  
Cooling Degree Days 0 0  
Month to date cooling degree days 0 0  
Year to date cooling degree days 152 177  
Growing Degree Days 4 (Base 50)    
Moisture  
Dew Point 29 °F    
Average Humidity 50    
Maximum Humidity 79    
Minimum Humidity 20    
Precipitation  
Precipitation 0.00 in 0.03 in 0.47 in (2012)
Month to date precipitation 0.21 1.30  
Year to date precipitation 19.14 17.79  
Sea Level Pressure  
Sea Level Pressure 29.98 in    
Wind  
Wind Speed 6 mph (NW)    
Max Wind Speed 12 mph    
Max Gust Speed 17 mph    
Visibility 10 miles    
Events      
T = Trace of Precipitation, MM = Missing Value Source: NWS Daily Summary

Daily Weather History Graph

Daily Weather History Graph

Search for Another Location

Airport:

Trip Planner

Search our weather history database for the weather conditions in past years. The results will help you decide how hot, cold, wet, or windy it might be!

Date:

Astronomy

Oct. 24, 2014 Rise Set
Actual Time 7:20 AM MDT 5:56 PM MDT
Civil Twilight 6:50 AM MDT 6:25 PM MDT
Nautical Twilight 6:17 AM MDT 6:59 PM MDT
Astronomical Twilight 5:43 AM MDT 7:32 PM MDT
Moon 8:02 AM MDT (10/24) 6:36 PM MDT (10/24)
Length of Visible Light 11h 35m
Length of Day
10h 36m
New Moon, 1% of the Moon is Illuminated
Oct 24
New Moon
Oct 30
First Quarter
Nov 6
Full
Nov 14
Last Quarter
Nov 22
New

Hourly Weather History & Observations

Time (MDT) Temp. Windchill Dew Point Humidity Pressure Visibility Wind Dir Wind Speed Gust Speed Precip Events Conditions
12:53 AM 51.1 °F - 26.1 °F 38% 29.90 in 10.0 mi West 6.9 mph - N/A   Clear
1:53 AM 54.0 °F - 25.0 °F 33% 29.88 in 10.0 mi WSW 8.1 mph - N/A   Clear
2:53 AM 52.0 °F - 25.0 °F 35% 29.87 in 10.0 mi WSW 6.9 mph - N/A   Clear
3:53 AM 48.9 °F - 25.0 °F 39% 29.88 in 10.0 mi West 5.8 mph - N/A   Clear
4:53 AM 50.0 °F - 25.0 °F 38% 29.89 in 10.0 mi WNW 8.1 mph - N/A   Clear
5:53 AM 48.0 °F - 25.0 °F 41% 29.92 in 10.0 mi West 5.8 mph - N/A   Clear
6:53 AM 50.0 °F - 24.1 °F 36% 29.95 in 10.0 mi WNW 5.8 mph - N/A   Clear
7:53 AM 52.0 °F - 24.1 °F 34% 29.98 in 10.0 mi West 6.9 mph - N/A   Clear
8:53 AM 54.0 °F - 27.0 °F 35% 30.00 in 10.0 mi West 4.6 mph - N/A   Clear
9:53 AM 63.0 °F - 28.9 °F 28% 30.01 in 10.0 mi Variable 3.5 mph - N/A   Clear
10:53 AM 66.0 °F - 28.0 °F 24% 29.99 in 10.0 mi ENE 6.9 mph - N/A   Clear
11:53 AM 66.9 °F - 28.0 °F 23% 29.99 in 10.0 mi ESE 5.8 mph - N/A   Clear
12:53 PM 70.0 °F - 27.0 °F 20% 29.93 in 10.0 mi Variable 4.6 mph - N/A   Clear
1:53 PM 70.0 °F - 26.1 °F 19% 29.92 in 10.0 mi Variable 5.8 mph - N/A   Clear
2:53 PM 70.0 °F - 26.1 °F 19% 29.93 in 10.0 mi SW 8.1 mph - N/A   Clear
3:53 PM 69.1 °F - 28.9 °F 22% 29.95 in 10.0 mi Calm Calm - N/A   Clear
4:53 PM 61.0 °F - 34.0 °F 36% 29.98 in 10.0 mi East 8.1 mph - N/A   Clear
5:53 PM 55.0 °F - 35.1 °F 47% 30.02 in 10.0 mi East 5.8 mph - N/A   Clear
6:53 PM 51.1 °F - 35.1 °F 54% 30.05 in 10.0 mi NE 6.9 mph - N/A   Clear
7:53 PM 50.0 °F - 36.0 °F 59% 30.07 in 10.0 mi NE 4.6 mph - N/A   Clear
8:53 PM 46.0 °F 43.9 °F 35.1 °F 66% 30.08 in 10.0 mi North 4.6 mph - N/A   Clear
9:53 PM 45.0 °F 42.6 °F 34.0 °F 65% 30.07 in 10.0 mi NE 4.6 mph - N/A   Clear
10:53 PM 39.9 °F 36.7 °F 33.1 °F 77% 30.08 in 10.0 mi North 4.6 mph - N/A   Clear
11:53 PM 39.0 °F 36.8 °F 33.1 °F 79% 30.08 in 10.0 mi NNE 3.5 mph - N/A   Clear